Theta_e
349 348 348 349 348 348 348 347 349 343 344 345 346 343 345 345 348 347 345 351 349 350 348 350 349 345 346 346 345 346 346 346 346 342 344 344 351 351 350 350 346 345 344
350 350 344 347 349 347 348 348 349 344 347 344 345 344 343 345 345 346 350 349 349 349 349 350 350 348 350 349 348 349 347 349 347 347 347 347 348 350 350 352 349 346 347
348 350 345 345 347 348 348 348 348 344 347 350 345 344 344 344 343 344 348 351 351 350 349 350 349 350 350 349 349 350 347 349 349 349 348 346 347 348 348 348 350 349 346
343 347 348 348 349 349 349 349 349 344 342 347 344 348 347 344 342 344 345 347 350 350 351 350 350 350 351 350 350 350 349 349 348 349 347 347 347 347 349 347 345 345 345
343 344 343 343 343 343 347 347 347 347 341 339 349 349 346 348 347 345 346 346 351 351 351 350 350 350 345 345 347 347 346 349 349 348 347 347 346 351 347 347 346 346 346
344 343 342 343 343 342 344 344 340 341 344 341 342 343 345 348 343 341 342 347 351 352 351 351 350 348 348 343 344 343 345 347 349 349 348 347 350 349 347 347 348 348 349
342 340 339 341 339 339 342 343 345 344 344 343 344 346 342 343 343 343 343 343 347 351 351 351 351 346 341 342 343 344 346 346 344 344 346 351 351 350 350 350 352 352 352
344 342 342 341 341 341 341 340 340 339 339 343 340 341 341 341 341 342 344 345 345 343 343 343 344 343 343 343 344 344 346 349 352 350 348 347 347 347 347 348 348 349 353
343 343 343 341 341 340 339 338 338 337 339 341 339 338 337 338 339 340 341 342 342 344 344 343 343 341 341 340 340 340 341 343 343 343 346 346 345 346 347 346 349 350 353
341 339 340 339 339 339 339 339 339 339 340 340 339 337 337 337 338 338 338 340 341 341 341 339 338 337 336 337 337 336 337 338 337 338 337 338 338 339 339 341 347 349 349
339 338 337 336 335 334 333 334 336 336 336 336 337 337 337 337 337 338 339 339 338 335 335 332 331 330 326 324 323 322 322 323 323 333 335 337 338 340 342 344 344 345 345
329 329 329 329 326 325 325 328 332 336 337 336 335 335 335 335 334 330 329 329 332 332 331 329 325 322 320 318 317 316 315 317 326 328 331 333 335 335 335 335 336 336 339
318 319 319 319 320 321 325 328 330 332 331 331 327 325 328 326 328 330 329 329 326 327 325 321 321 319 316 317 315 311 314 322 322 323 326 328 328 327 326 336 330 326 332
312 312 312 314 315 318 319 322 322 323 323 322 321 320 324 326 325 323 322 320 319 318 317 315 313 311 311 312 316 318 319 318 321 323 322 320 322 325 326 326 325 326 327
312 313 312 313 314 312 313 315 317 318 318 317 317 317 315 314 316 315 313 312 311 309 307 305 305 305 306 308 313 311 312 308 311 311 313 314 316 318 319 320 319 320 322
312 312 312 313 312 311 310 311 312 312 313 313 313 312 312 309 307 305 304 303 303 303 303 304 303 303 303 303 303 303 304 304 304 304 306 309 313 315 316 315 317 318 319
310 308 309 309 309 310 308 306 307 306 305 304 303 303 302 302 302 302 302 302 302 302 306 306 307 306 305 304 304 305 304 303 302 303 303 305 308 309 310 311 312 312 312
306 305 307 306 306 306 306 306 305 304 304 301 301 301 300 301 301 300 300 301 304 303 304 305 304 304 304 304 304 304 304 305 304 304 305 305 305 305 305 307 308 310 310
303 303 304 304 304 304 304 304 304 304 304 303 300 299 299 299 300 300 300 303 303 303 303 302 301 301 301 301 301 302 302 302 301 303 303 303 303 304 304 305 305 305 306
302 303 303 303 302 303 303 303 303 303 303 303 302 302 301 299 302 302 300 300 301 302 301 301 300 300 300 299 299 299 300 300 300 300 300 300 300 300 301 302 302 302 303
304 301 301 303 303 303 303 303 303 303 302 302 301 298 298 301 302 301 301 301 300 300 299 299 299 299 299 298 298 298 298 298 298 298 298 297 297 297 298 298 298 299 299
304 303 302 303 303 303 303 303 303 302 302 302 301 297 297 300 301 301 300 300 298 298 298 298 298 298 297 297 297 296 296 296 296 295 295 294 294 294 295 295 296 296 297
304 303 303 303 304 303 302 303 303 303 303 302 301 301 300 300 300 300 299 298 297 297 297 297 297 297 296 296 296 296 295 295 295 294 294 294 294 294 294 294 294 294 294
306 304 304 304 303 304 303 304 304 304 304 303 302 301 300 300 300 300 299 298 298 298 296 296 296 296 296 296 295 295 295 294 294 294 293 293 294 293 293 293 293 293 294
306 306 305 304 304 303 304 304 305 305 304 304 303 302 301 301 301 300 300 300 299 298 298 297 296 295 295 295 295 295 295 294 294 294 294 294 294 294 294 293 293 294 295
310 308 306 305 304 304 303 304 304 305 305 305 304 303 302 302 301 301 301 301 301 300 299 298 296 294 295 295 294 294 294 294 294 295 295 295 295 295 295 295 296 296 296
Wind_Speed
15 15 15 14 12 11 11 11 9 9 8 8 8 7 4 7 8 8 8 9 8 7 7 7 7 9 8 9 11 11 11 12 14 16 15 15 16 17 16 15 13 13 14
15 16 17 15 13 12 12 13 11 10 10 9 8 7 5 6 6 7 6 7 8 7 7 7 8 7 9 8 8 10 10 11 12 15 14 14 15 15 15 15 13 12 15
13 16 17 19 17 15 14 14 15 13 11 9 9 9 9 7 6 6 7 7 7 7 7 8 8 8 9 9 9 8 9 9 11 13 14 12 14 14 15 15 13 14 14
22 17 12 14 17 16 15 15 15 16 15 12 12 10 10 11 10 9 8 7 7 8 8 8 9 9 10 10 10 12 10 12 13 13 14 15 15 14 13 15 16 16 17
20 21 18 18 18 16 13 14 14 14 16 15 12 10 10 9 9 12 11 10 8 8 9 9 9 12 12 12 13 13 12 11 13 15 15 15 14 13 16 16 18 19 20
22 22 22 21 16 12 14 13 14 13 13 15 13 12 11 11 16 14 14 11 9 8 8 7 8 11 9 14 15 15 15 16 16 15 16 17 17 16 17 18 19 21 23
17 16 17 16 19 19 15 14 12 11 11 12 10 11 14 15 14 15 15 13 12 9 9 8 7 13 14 15 16 16 17 18 20 21 22 20 21 19 21 21 21 22 24
18 15 14 15 16 21 21 16 11 9 8 6 7 7 8 8 8 11 12 15 15 14 14 14 13 16 17 16 16 17 18 15 15 18 20 23 24 26 26 27 27 27 23
17 18 16 15 18 15 11 15 16 13 12 14 14 13 9 8 6 5 6 8 11 12 11 11 8 8 5 9 15 16 15 13 12 20 22 23 24 23 23 24 18 20 21
21 15 14 17 15 15 16 18 19 15 19 18 17 15 12 8 9 6 4 3 6 5 5 5 5 7 8 8 9 10 14 14 14 13 13 13 14 13 14 16 12 15 18
19 16 14 14 13 12 11 11 15 15 12 10 12 11 9 8 7 6 6 5 4 3 3 3 5 5 7 8 10 11 12 13 13 12 12 10 9 9 10 10 13 14 17
15 14 13 13 12 12 12 12 13 14 13 11 9 9 9 9 7 5 4 3 3 4 5 6 6 6 8 11 12 13 13 13 9 10 11 10 11 10 13 15 17 15 13
12 12 12 12 12 12 11 11 12 12 10 10 9 7 7 4 4 5 5 4 5 8 9 9 11 14 14 13 15 15 11 8 8 9 10 12 14 15 16 12 17 21 18
9 9 10 10 11 11 9 9 7 7 7 7 6 6 9 10 9 9 9 11 12 14 15 16 16 14 13 9 7 8 7 8 7 6 9 13 13 13 15 15 17 17 20
4 5 6 7 9 13 13 13 14 13 12 8 9 10 6 9 12 13 14 15 14 13 11 8 6 6 6 3 5 5 6 7 8 10 11 11 13 15 16 16 18 19 19
2 2 4 5 6 6 9 11 11 11 12 13 13 12 12 11 9 8 7 5 4 3 2 1 3 3 3 5 7 7 8 10 12 13 13 13 14 15 17 18 16 18 19
2 4 4 4 5 6 6 6 8 8 8 7 7 6 5 4 2 2 2 2 2 3 4 4 3 4 5 8 9 11 12 14 15 15 15 15 16 17 18 19 20 20 23
5 6 4 6 7 8 7 7 7 5 3 4 4 3 2 1 1 1 1 1 4 3 4 4 4 5 6 8 9 9 10 11 13 15 15 16 17 18 19 19 20 21 23
7 6 6 6 7 9 9 8 7 7 7 6 3 3 3 2 1 2 2 4 4 4 4 4 5 5 6 7 9 10 12 12 14 15 15 16 17 19 19 20 22 24 25
11 13 11 9 9 8 8 8 8 8 7 6 5 3 2 2 1 1 1 2 3 3 3 4 5 6 7 8 10 11 12 13 14 15 16 17 18 19 20 22 23 26 26
11 13 13 10 10 10 9 9 8 7 6 5 4 5 6 6 4 2 3 2 3 3 3 4 5 6 7 9 11 12 12 13 14 15 16 18 19 21 21 22 23 24 26
12 13 13 11 12 12 9 8 7 7 6 6 5 4 3 4 3 2 2 2 2 4 5 7 7 8 8 10 14 14 14 14 15 19 22 24 24 24 24 24 25 25 27
14 15 15 14 12 11 12 10 9 8 7 6 6 5 3 4 3 2 0 1 3 4 6 7 9 9 11 15 16 17 18 19 22 25 28 30 31 31 30 30 28 31 31
17 17 16 16 15 15 14 13 12 12 10 8 7 6 5 4 3 3 1 1 3 5 7 9 11 11 13 16 18 19 19 21 24 27 30 32 33 34 35 34 33 32 34
20 19 20 20 19 19 17 17 14 13 11 10 9 8 7 6 5 5 4 4 4 5 7 9 11 13 16 16 17 18 20 22 24 26 29 30 32 33 33 32 32 37 39
26 25 24 22 22 21 20 19 17 16 14 12 11 10 10 9 8 8 7 7 6 7 9 8 11 15 16 17 16 18 21 23 24 25 28 30 31 32 33 34 35 36 37
Wind_Direction
216 221 219 227 227 234 239 238 244 243 224 208 215 211 210 225 237 232 221 220 232 238 243 259 262 257 263 271 278 275 273 276 281 287 289 300 308 314 312 318 330 331 321
222 228 229 227 231 233 240 237 241 244 240 225 221 224 243 248 244 225 216 227 236 242 246 249 256 267 274 286 279 275 268 271 279 289 299 309 310 315 316 323 323 324 314
236 227 230 228 229 232 236 237 242 242 242 245 247 248 239 239 228 230 218 220 232 238 237 245 250 262 275 267 266 271 288 288 291 293 296 306 308 315 314 322 321 326 328
238 225 218 217 227 235 236 239 236 240 245 246 248 245 239 239 236 235 241 241 243 247 248 255 261 262 272 273 272 269 282 281 286 296 297 303 306 309 310 319 317 321 318
225 223 223 222 226 229 236 234 239 235 239 241 237 241 238 233 238 236 238 245 246 243 247 263 272 267 268 272 273 277 274 281 286 288 293 298 305 310 308 313 314 313 318
225 240 236 227 227 229 231 229 229 220 219 222 230 236 236 222 241 246 245 245 245 241 244 253 253 272 265 260 261 264 275 286 287 285 288 291 296 302 304 300 303 308 310
213 200 207 224 226 232 217 205 204 204 211 218 220 221 246 250 251 246 244 240 241 240 237 239 243 256 272 278 282 281 276 279 279 281 283 284 287 293 290 299 302 300 301
206 203 203 207 202 186 183 192 190 179 177 171 211 219 236 244 246 240 235 232 236 248 263 266 266 275 281 286 286 285 282 279 281 280 280 283 287 289 293 294 297 301 302
203 209 194 215 210 201 204 213 222 238 233 231 233 232 231 244 246 238 236 239 241 248 253 262 262 277 290 314 313 304 297 293 287 289 287 289 291 292 293 295 301 293 295
183 192 196 198 198 209 219 221 220 209 222 237 247 243 230 234 235 226 190 192 218 222 216 222 260 285 301 314 318 318 314 308 307 302 308 317 320 319 330 325 317 309 305
173 175 181 188 184 180 182 183 185 191 192 208 210 215 219 222 235 207 169 157 175 199 215 248 275 292 305 317 317 321 323 323 335 339 328 326 323 326 326 311 314 310 308
154 157 162 165 165 170 168 170 168 171 177 178 193 195 188 180 183 211 209 181 214 233 237 260 275 295 305 307 311 310 312 322 331 328 323 322 323 325 320 325 329 313 307
157 162 166 167 164 161 157 154 159 172 171 170 180 186 193 182 215 244 255 256 274 281 285 289 291 291 299 314 304 302 320 332 331 328 316 312 313 321 323 315 294 320 321
184 186 183 181 180 171 160 158 158 162 171 179 192 210 230 238 246 257 266 272 273 276 281 285 290 292 297 310 337 345 1 349 357 326 322 325 332 325 324 324 322 323 318
166 169 170 176 181 193 196 191 206 213 202 192 209 221 225 253 258 264 266 268 269 270 272 274 271 269 267 306 359 348 355 345 344 339 336 332 328 321 321 322 324 323 319
135 149 181 180 171 183 209 218 219 219 222 230 240 249 253 261 262 261 255 251 253 245 237 244 270 277 305 333 323 331 331 331 329 333 332 332 331 327 321 325 325 319 315
190 214 213 188 194 182 181 189 207 209 216 214 218 227 231 238 246 272 283 306 346 42 61 63 50 17 6 0 355 350 341 330 328 329 329 330 332 331 329 324 323 320 316
231 236 214 217 211 204 187 195 187 166 178 198 199 206 234 262 333 329 252 153 52 64 69 53 35 16 8 4 357 352 342 344 338 342 342 338 333 329 329 324 321 316 313
248 236 209 216 202 198 187 179 171 172 177 167 184 212 222 248 266 247 211 105 92 69 53 36 24 16 5 359 350 348 347 339 345 341 338 334 333 331 327 322 317 314 312
236 222 205 206 209 201 184 175 176 181 175 165 162 166 171 42 105 127 161 143 106 79 41 23 4 356 350 348 347 345 346 343 338 338 334 333 331 328 323 318 315 313 312
212 222 199 197 207 208 198 185 180 177 174 167 185 201 195 156 173 145 112 72 64 47 20 3 352 353 350 345 345 344 341 338 335 333 331 327 325 321 316 312 309 307 307
212 213 210 206 211 206 197 188 182 180 180 179 198 204 199 150 164 157 121 78 21 3 359 359 353 346 341 339 339 338 337 335 330 327 326 325 324 320 317 312 309 310 310
219 217 217 214 216 211 204 198 201 197 195 198 197 211 197 196 194 186 173 1 340 342 343 349 349 341 331 334 335 336 336 332 331 331 328 326 324 322 319 313 309 311 312
219 222 221 222 221 218 213 212 211 207 204 213 215 218 216 210 211 243 238 284 324 323 329 333 338 339 339 338 336 338 337 333 329 327 326 324 322 322 319 316 311 313 314
219 222 225 223 220 218 218 217 220 221 221 220 226 227 230 229 235 247 248 272 291 304 303 313 327 325 330 335 333 334 336 333 328 325 325 324 320 318 315 311 309 311 309
240 225 224 223 223 220 218 221 218 222 225 228 233 231 232 240 246 245 251 262 279 291 295 299 304 321 324 329 331 330 329 330 331 329 324 324 324 327 325 321 319 318 318